Theta_e
317 316 315 314 313 313 312 312 312 311 310 322 320 327 323 323 317 326 331 330 327 322 316 321 317 314 318 321 319 318 317 315 316 316 316 316 318 316 316 315 313 316 314 314 313 315 311 313 312 313 313 315 316 318 319 318 316 316 314 318 317 324 311 307 307 312 314 317 318 318 318 316 312 312 313 311 307 308 306 306 308 303 305 302 303 301 307
317 316 315 314 313 313 312 312 312 311 310 315 321 323 322 321 317 320 325 329 327 319 313 314 314 315 317 317 316 317 315 315 315 315 316 315 315 315 315 316 317 314 317 315 312 315 308 313 313 313 315 313 319 319 318 318 315 315 315 312 316 309 314 309 304 304 307 309 313 312 315 314 312 309 311 312 312 312 311 311 311 304 304 304 301 297 308
317 316 315 314 313 313 313 312 312 311 310 312 321 321 323 323 323 320 321 326 325 315 318 316 315 315 314 312 312 313 313 316 315 314 314 316 315 314 314 316 316 314 316 314 315 315 312 310 314 315 315 315 319 319 318 319 316 319 320 323 318 311 309 308 301 299 297 297 298 301 306 309 311 313 312 313 312 311 309 304 307 300 308 307 303 303 313
317 316 315 315 314 313 313 312 312 310 310 309 323 324 321 319 313 317 318 319 320 319 322 320 316 316 314 310 314 313 312 315 316 314 314 316 316 315 314 316 315 312 313 312 312 312 316 313 311 312 312 315 317 318 319 317 317 324 325 321 317 310 311 310 308 305 302 305 308 311 312 310 306 311 311 311 313 312 312 310 307 303 307 305 310 307 309
317 317 316 315 314 313 313 312 311 310 309 309 318 328 327 321 313 314 315 319 319 316 317 317 315 313 315 313 315 312 313 314 313 315 311 314 313 312 313 313 310 311 310 309 309 311 311 314 313 312 312 313 315 318 318 317 321 329 318 321 315 312 307 309 309 308 308 309 309 310 311 308 308 308 308 310 311 312 311 307 305 315 307 300 311 316 308
318 317 317 316 315 314 314 312 310 309 309 308 325 323 322 312 315 318 321 313 310 315 313 315 315 315 314 313 314 311 311 312 311 314 314 313 315 308 314 314 312 310 308 308 305 308 308 310 309 312 312 313 315 313 316 313 326 320 314 317 312 308 305 309 309 308 310 310 309 310 310 310 310 310 310 310 311 311 309 309 311 310 307 303 312 316 309
318 318 317 317 316 316 315 313 310 308 307 310 329 317 321 320 319 316 320 313 314 313 312 313 312 313 313 313 311 311 310 309 311 310 309 311 313 312 305 309 311 310 310 308 305 307 304 305 312 311 310 310 310 308 310 312 315 314 313 315 319 312 307 309 309 307 307 307 307 308 307 307 308 308 308 309 310 310 310 310 311 311 310 311 311 314 309
318 318 317 317 317 317 316 314 311 309 307 321 321 317 315 315 314 313 320 323 315 314 314 313 313 311 310 311 313 310 309 308 310 311 308 306 310 312 308 308 309 309 309 310 306 308 310 310 307 311 309 308 309 307 310 309 313 313 311 312 314 309 305 308 307 305 304 306 306 306 306 305 304 306 307 308 309 309 310 310 311 312 310 311 310 311 316
318 317 317 317 317 316 316 315 312 310 309 326 319 315 317 318 324 322 318 316 311 313 313 314 313 313 313 312 309 311 310 308 308 308 310 309 307 309 307 308 309 310 309 309 309 314 312 312 311 310 309 305 310 306 308 311 307 309 308 310 311 310 306 309 307 301 301 305 305 306 306 306 305 304 305 305 305 304 306 306 312 313 313 310 311 309 318
318 317 317 317 316 316 316 315 313 311 312 324 323 313 320 321 323 327 326 318 314 311 314 313 313 310 310 309 309 307 308 309 309 307 314 315 313 311 309 309 308 308 309 311 312 314 314 313 312 312 311 311 310 311 309 309 307 306 306 309 306 307 305 303 303 299 299 303 305 305 305 304 301 303 306 309 308 309 311 314 315 317 318 314 312 314 321
318 318 317 317 316 316 316 315 313 311 316 318 320 317 317 316 317 322 325 317 315 311 314 311 309 311 312 309 310 312 310 310 311 305 309 313 313 313 312 310 309 306 309 311 315 316 315 314 313 313 312 311 310 310 310 310 309 308 307 306 307 308 306 304 306 299 300 303 304 305 301 295 297 311 314 314 311 311 309 313 315 317 319 317 320 321 324
318 318 317 317 316 316 316 315 314 313 312 318 322 320 319 322 323 325 320 314 311 314 311 307 307 308 309 309 308 308 308 308 308 311 307 309 311 313 314 312 310 306 313 316 316 315 315 315 314 314 312 311 310 309 309 308 309 312 310 307 307 306 306 303 306 301 300 304 304 299 294 296 309 316 316 316 315 316 312 314 320 320 320 320 321 320 320
318 318 318 317 317 316 316 315 313 312 311 316 322 320 321 325 323 321 321 320 312 310 309 308 310 309 309 311 309 309 310 309 310 312 310 310 309 311 314 311 310 311 315 314 314 313 310 309 311 312 312 312 312 312 311 311 310 311 311 311 308 306 305 306 304 304 304 301 299 291 294 305 315 315 316 317 317 316 314 311 317 319 318 319 318 319 321
318 318 318 318 317 316 316 315 314 314 312 313 319 324 322 323 321 320 321 318 317 311 311 313 312 310 308 310 309 309 311 312 314 313 313 311 309 311 313 313 313 315 316 315 313 313 310 312 307 307 308 311 311 308 311 313 313 312 312 312 312 309 308 306 301 306 297 299 299 299 308 306 310 311 312 314 310 311 310 305 312 318 320 321 318 321 322
319 318 318 318 318 317 316 316 315 315 313 311 320 326 323 323 324 322 325 323 316 316 312 305 307 308 309 312 310 308 311 315 314 312 314 316 314 314 313 315 317 316 315 313 311 312 309 309 306 304 305 305 301 304 311 307 313 313 312 313 314 317 309 311 304 304 306 301 299 300 298 296 305 313 315 318 317 317 316 312 308 320 322 323 321 321 322
319 319 318 318 318 317 317 316 316 315 314 311 320 326 325 326 327 325 323 323 320 311 309 311 310 310 309 311 313 312 308 310 309 309 310 314 314 315 316 317 317 317 315 312 313 312 311 306 303 304 302 304 307 305 304 308 307 311 313 314 313 314 314 312 306 303 303 301 297 296 295 302 308 311 314 317 318 316 317 310 304 317 322 321 322 321 321
319 319 318 318 318 317 317 316 315 315 314 312 315 323 324 328 326 322 321 324 323 310 314 312 312 314 314 314 315 314 312 308 309 308 308 312 312 313 312 317 318 317 315 311 313 311 308 308 308 306 306 310 305 303 307 305 304 305 309 311 310 310 309 308 303 302 303 302 298 296 301 302 309 312 314 317 318 318 312 298 300 315 321 321 322 321 320
319 319 318 318 318 318 317 316 315 315 314 312 315 320 326 330 329 326 323 322 318 316 315 314 310 311 309 310 309 311 312 311 313 316 312 314 315 313 313 316 311 316 319 310 312 307 306 306 303 302 301 309 309 308 299 305 302 303 304 305 304 305 305 306 301 302 302 302 301 303 304 311 314 314 315 318 318 314 302 296 306 318 322 324 323 323 322
319 319 318 318 318 318 317 316 316 315 314 312 316 326 326 330 330 326 323 320 318 313 315 316 316 315 314 317 314 316 314 311 310 308 311 312 313 314 316 316 317 309 315 311 310 307 305 304 309 306 302 305 309 303 306 302 303 307 307 303 302 303 304 304 304 300 299 302 298 298 303 309 313 316 316 318 313 301 300 312 320 323 320 322 322 323 325
319 319 318 318 318 318 317 316 316 316 315 313 314 318 327 329 329 327 320 314 317 318 319 317 314 313 315 313 312 313 316 318 317 311 312 308 316 312 312 309 316 315 313 314 307 309 305 302 304 308 303 303 306 307 303 305 309 306 305 306 302 304 301 300 300 303 303 303 300 296 291 309 314 314 314 316 308 309 316 319 320 322 321 322 323 324 325
319 319 318 318 318 317 316 316 316 316 316 314 313 319 325 329 328 328 327 322 318 317 317 320 316 316 315 313 314 314 314 312 315 312 314 314 317 312 304 304 310 310 309 309 303 305 306 303 305 304 307 304 305 306 302 302 304 312 308 306 304 310 300 301 303 309 299 298 297 296 304 311 315 314 307 312 315 318 320 319 318 321 321 322 322 324 325
318 319 319 318 318 317 316 316 316 316 316 315 314 322 323 325 328 326 327 327 320 317 318 320 318 316 317 318 317 318 316 316 318 318 314 312 320 312 313 315 314 312 314 313 311 310 310 307 307 305 303 304 309 302 306 300 299 305 311 309 300 310 306 308 301 308 303 301 304 310 315 315 316 317 316 316 318 320 319 318 317 318 319 324 321 322 324
318 319 319 318 318 317 316 316 315 315 315 315 315 320 320 323 324 327 328 323 327 326 328 324 322 322 321 322 322 320 319 322 320 319 318 314 312 317 312 312 312 315 316 317 311 311 309 308 306 307 304 306 305 304 305 305 302 307 304 310 307 313 313 316 310 307 313 313 312 315 315 316 315 317 319 317 317 319 319 318 318 319 321 322 321 324 323
318 319 318 318 318 316 316 315 315 315 315 315 315 317 320 324 324 324 324 323 322 318 323 323 317 316 315 314 316 320 320 320 319 322 323 320 313 315 316 318 318 316 317 318 318 312 309 309 309 309 303 308 310 304 302 303 304 308 306 306 309 312 314 311 305 310 305 299 312 311 311 314 315 315 318 319 319 320 320 319 319 320 320 321 322 323 325
318 319 318 318 317 316 315 315 315 315 314 314 315 317 323 325 324 323 319 313 315 315 312 316 316 319 318 319 318 317 319 322 322 321 320 320 319 314 312 318 319 316 315 317 319 314 314 307 309 308 303 311 311 303 310 304 304 311 303 306 308 308 312 309 310 310 307 307 310 313 316 315 318 317 316 317 318 319 320 320 321 321 322 322 322 323 322
318 318 318 318 317 316 315 315 315 315 314 314 314 318 321 323 325 326 322 320 320 320 313 311 315 320 319 317 316 317 319 319 319 319 318 319 320 320 318 320 320 322 320 317 315 312 311 310 311 310 305 307 315 307 307 311 308 312 307 307 312 313 316 306 309 306 310 313 313 313 314 314 315 316 318 319 318 318 320 320 320 320 320 323 324 324 322
318 318 318 317 316 315 315 315 315 314 314 314 315 319 323 325 327 322 318 316 315 316 316 313 315 317 318 315 318 319 319 319 318 317 317 318 318 319 319 319 316 317 315 315 316 315 314 311 309 306 309 309 313 311 311 309 310 309 307 310 315 311 307 311 309 305 303 306 309 314 306 306 312 315 317 318 320 320 319 320 320 321 321 321 321 322 323
318 318 318 317 316 315 315 315 314 314 314 313 315 321 326 325 326 324 324 321 316 309 310 310 311 317 321 317 319 319 319 319 318 317 316 316 317 317 316 316 317 314 314 313 309 310 309 307 306 312 312 314 311 310 313 313 312 309 310 310 313 312 312 310 306 305 304 311 314 316 316 315 316 317 318 320 320 320 320 319 320 321 321 321 321 321 322
318 318 317 316 315 315 315 315 314 314 314 313 319 321 324 325 327 323 322 321 322 316 315 316 319 316 310 313 319 319 320 319 319 317 317 317 316 316 315 316 315 315 314 313 311 312 309 309 314 311 310 316 311 307 309 304 304 304 309 314 314 315 317 314 314 313 314 316 316 318 316 314 315 318 318 319 322 321 319 320 321 322 322 324 323 323 323
318 317 317 316 315 315 314 314 314 314 313 316 319 320 318 319 325 324 320 320 322 319 313 313 312 313 319 318 317 317 319 320 319 318 317 316 316 316 316 316 316 316 314 311 312 308 312 311 313 315 316 321 311 310 306 305 304 308 312 315 317 318 318 318 319 316 312 317 318 319 319 318 319 318 319 320 321 322 320 320 321 321 322 323 323 324 324
317 317 316 316 315 315 315 314 314 314 314 318 319 317 316 312 319 321 317 320 325 320 317 317 313 319 316 319 318 317 318 318 318 318 318 317 317 317 318 318 317 316 313 314 313 312 314 311 311 313 317 317 315 310 306 305 303 306 312 314 316 316 317 317 318 319 318 319 320 320 319 319 320 319 319 319 320 322 321 322 323 324 323 323 322 323 323
317 317 317 316 315 315 315 315 314 314 316 318 318 316 316 314 318 319 318 319 324 320 316 312 313 315 312 313 317 318 317 318 317 317 318 318 316 318 318 317 316 318 317 313 315 314 312 315 313 313 313 320 316 310 309 307 304 306 313 314 317 318 318 319 318 319 320 321 319 316 315 317 319 316 316 320 321 323 322 322 323 323 325 323 323 324 324
317 317 317 316 315 315 315 315 315 315 315 315 314 314 314 313 313 315 318 323 322 318 320 314 310 313 309 312 316 317 318 316 316 316 315 319 315 319 315 318 317 315 325 316 310 310 315 314 314 310 318 320 313 311 309 306 308 310 315 316 317 318 319 320 320 320 321 320 319 314 313 315 318 320 321 322 322 321 323 322 322 323 322 322 321 321 321
317 317 316 316 316 315 315 315 315 313 314 315 318 319 321 316 317 316 321 324 320 321 321 314 311 311 310 315 310 315 319 312 314 316 311 319 321 317 315 315 318 313 317 312 316 314 316 314 311 311 318 315 316 310 305 310 313 313 314 315 318 319 319 318 319 317 318 319 319 320 321 321 322 322 322 321 321 323 323 322 323 321 320 320 321 322 322
316 316 316 316 316 316 315 314 316 318 319 320 321 321 320 314 313 317 319 322 314 317 317 317 316 310 308 309 308 314 320 314 312 316 311 317 320 315 316 312 314 310 314 319 314 314 311 312 317 310 308 315 310 306 308 311 313 315 316 316 317 318 318 316 316 318 318 319 320 320 322 322 320 318 318 319 320 321 321 321 321 321 320 320 321 322 323
316 317 317 316 315 315 317 318 317 316 319 318 320 322 316 318 318 324 326 325 319 315 312 314 312 307 307 304 305 312 316 311 317 316 316 317 314 318 316 313 307 312 320 314 310 313 311 321 313 307 316 305 305 307 312 315 314 315 315 315 317 318 317 317 315 317 318 319 320 321 320 319 319 319 319 319 320 320 320 320 320 321 320 320 321 323 324
317 316 316 315 317 318 316 318 323 321 319 319 322 320 316 318 323 325 324 321 323 323 315 313 310 310 308 308 312 316 315 307 315 311 314 311 311 317 314 312 307 315 314 311 311 310 315 322 312 307 307 305 309 316 318 317 316 315 316 317 319 320 319 319 318 318 317 317 318 318 319 318 318 319 321 322 321 321 320 320 320 320 319 320 321 321 322
316 316 316 317 318 315 315 317 320 320 319 318 316 320 319 317 315 317 316 315 320 319 317 316 310 313 314 309 305 315 312 309 313 306 308 315 310 311 316 312 311 311 304 307 311 319 317 314 311 308 310 316 318 318 317 319 319 320 320 320 320 320 319 318 318 317 315 314 315 317 318 318 317 319 318 318 321 320 320 323 322 321 321 321 322 324 323
314 317 318 319 317 314 316 320 327 317 319 322 322 316 315 318 315 311 311 314 315 310 316 311 310 313 310 309 311 318 312 308 306 308 305 314 309 305 312 305 313 312 305 306 311 317 307 308 310 309 307 313 313 317 319 319 322 321 321 322 321 320 319 318 319 318 316 316 318 320 320 319 319 318 320 320 320 321 322 322 323 323 323 324 324 324 325
318 316 315 315 314 317 323 321 319 319 320 315 319 315 309 316 308 303 312 305 304 311 312 305 312 312 312 309 307 308 318 311 305 305 307 309 315 305 310 309 311 308 302 302 307 316 306 301 308 305 305 313 314 318 320 319 318 320 320 322 321 320 320 319 319 319 320 322 322 322 323 322 322 321 321 320 320 320 321 321 323 324 324 324 325 325 325
319 318 317 314 317 321 322 323 322 320 316 312 313 313 310 305 310 312 308 305 304 307 314 310 313 312 313 313 312 307 318 317 319 317 312 305 316 313 308 305 313 304 303 302 312 313 309 306 305 303 305 314 315 318 319 318 318 320 320 320 320 320 320 320 320 320 320 319 320 321 324 324 323 323 325 325 323 323 323 323 322 323 324 324 324 324 324
317 315 317 319 320 322 321 319 318 314 315 314 306 302 305 306 311 309 309 302 304 309 312 310 307 309 309 311 310 311 313 319 316 313 309 305 314 309 307 308 309 302 300 308 314 309 307 301 302 303 312 314 318 320 320 320 320 319 318 319 320 320 319 319 319 319 320 320 320 322 324 324 324 324 326 327 326 324 323 324 323 324 324 325 326 327 327
312 315 318 316 317 316 319 308 315 313 299 300 301 293 301 300 305 304 306 309 314 309 314 316 314 315 315 315 311 315 313 319 311 310 309 306 312 313 307 305 305 299 305 313 309 304 301 301 302 307 312 317 319 319 320 319 320 319 319 320 320 321 320 319 319 319 320 321 321 322 324 325 325 325 326 325 326 325 326 326 325 325 325 326 326 327 327
320 319 315 316 313 315 315 295 314 307 298 300 296 290 298 300 305 306 304 306 310 308 312 308 309 308 305 313 309 310 313 316 316 315 310 313 308 305 305 301 302 309 312 306 304 301 302 306 309 311 316 318 318 320 320 320 319 320 318 320 320 320 320 320 320 320 319 321 322 322 322 323 324 326 327 326 325 324 325 327 327 326 326 327 326 327 328
314 313 313 309 300 309 303 290 311 303 294 299 301 302 303 300 302 304 305 310 310 308 312 310 309 309 306 312 312 311 309 306 317 307 304 308 304 305 302 301 307 308 303 300 302 303 304 302 313 314 315 316 318 320 322 320 320 319 318 318 319 319 320 319 319 319 320 320 320 321 321 322 323 325 326 326 324 325 323 323 325 326 326 326 326 326 327
310 303 301 295 289 295 298 294 297 294 304 307 306 307 306 306 307 307 310 312 309 310 308 309 309 309 306 311 306 306 312 310 305 307 308 308 303 301 307 311 309 302 302 301 299 298 301 306 311 314 315 316 319 320 320 321 321 320 318 317 318 319 319 319 319 320 320 320 320 321 322 322 323 325 325 325 325 325 324 325 326 326 325 325 324 325 326
312 313 308 304 295 299 307 296 299 304 309 309 309 309 308 309 311 311 312 311 309 310 310 312 311 309 305 306 308 308 309 308 303 308 308 301 301 304 309 304 299 301 297 297 298 300 304 308 312 316 317 318 319 320 320 321 319 318 318 318 319 319 319 319 320 319 320 321 321 320 322 323 325 326 326 323 323 324 326 327 327 329 327 327 327 328 328
299 311 310 295 293 299 299 304 310 310 311 311 310 311 312 313 309 308 312 313 312 311 309 309 307 308 306 311 308 303 305 307 303 304 307 304 307 302 300 301 300 302 302 300 300 304 307 310 312 315 317 319 319 318 319 318 318 318 318 318 318 319 319 319 320 320 321 320 321 321 322 324 324 325 324 322 323 326 326 326 325 325 326 328 330 330 328
310 308 299 299 306 306 306 309 309 306 309 311 311 311 311 310 308 310 313 314 312 311 311 308 308 306 301 307 304 304 301 306 298 298 306 303 299 295 297 295 298 298 304 304 304 307 309 312 315 317 317 316 319 318 318 317 318 318 318 318 319 319 320 320 320 321 321 321 321 322 323 325 325 324 324 323 322 324 325 326 327 326 325 327 329 327 327
302 301 308 308 306 307 310 311 307 305 308 309 308 308 310 308 308 310 314 311 313 311 311 309 310 303 304 306 297 302 302 305 303 304 301 298 299 300 299 296 299 299 301 306 307 310 312 313 315 315 315 315 317 316 317 317 318 318 319 320 320 320 320 320 321 321 322 322 322 322 324 327 323 322 322 324 324 325 323 326 326 325 325 327 330 328 326
309 306 304 311 307 307 310 304 305 305 306 306 307 308 309 308 310 310 314 313 312 310 307 302 305 304 300 299 300 292 298 306 303 300 299 299 302 300 297 297 301 304 305 308 310 311 313 316 313 313 315 316 316 317 317 318 318 318 319 319 320 320 321 321 321 322 322 322 323 324 324 327 325 325 325 327 326 326 327 328 330 331 329 328 328 329 328
298 296 302 308 311 310 310 311 311 310 310 311 310 311 314 308 311 314 316 313 310 305 303 306 304 300 295 294 299 303 306 302 299 301 298 302 305 300 300 301 303 306 308 308 309 311 312 313 316 316 316 316 316 316 318 319 318 319 319 319 319 320 320 320 321 322 322 322 323 323 325 329 329 328 327 328 328 324 323 324 327 328 329 331 330 328 329
Wind_Speed
24 25 26 27 27 28 28 26 24 24 28 13 11 9 6 8 3 5 3 4 6 6 8 7 3 7 5 5 3 2 4 4 3 7 4 7 5 8 4 7 7 7 7 8 9 9 8 9 5 7 5 6 8 7 6 7 8 8 6 7 11 11 5 8 10 10 12 14 13 13 14 11 10 10 12 10 10 10 9 7 7 8 9 8 5 6 3
24 25 26 27 28 28 29 28 24 19 18 8 10 8 7 9 5 5 5 6 6 7 7 7 9 4 6 5 4 2 6 4 6 4 7 6 7 8 5 4 5 9 3 6 10 7 5 2 5 6 6 3 4 7 4 6 7 6 7 6 10 6 2 7 9 8 7 10 7 9 5 11 8 10 9 12 11 10 8 9 8 8 9 13 9 10 4
24 24 25 27 28 28 29 29 28 22 14 10 5 6 8 9 6 4 5 4 7 7 7 8 8 6 1 2 6 6 7 4 4 7 6 4 8 7 6 7 7 8 7 8 9 8 9 8 7 8 6 5 5 9 4 5 10 7 7 6 8 7 8 7 9 9 9 8 6 5 7 7 9 12 14 11 12 10 8 9 6 6 7 11 9 6 2
23 24 25 26 27 28 29 30 30 29 19 14 4 6 7 6 5 6 6 4 7 8 4 6 7 1 3 5 3 6 2 8 2 2 3 5 8 7 7 8 8 9 8 7 8 9 3 4 7 9 6 6 4 7 5 2 7 9 7 7 8 7 8 9 9 10 11 11 12 15 15 13 12 10 12 15 14 15 12 7 7 8 7 10 6 10 5
23 24 25 26 27 28 29 29 31 32 28 13 5 5 5 7 4 6 5 3 1 3 2 6 2 6 7 5 4 1 4 6 4 5 5 7 5 8 4 8 7 6 7 7 8 8 12 9 8 5 9 6 8 3 5 2 5 10 3 7 8 7 9 12 14 17 17 18 19 19 18 19 19 19 17 16 17 15 14 12 10 8 8 9 4 5 8
23 24 25 26 26 28 29 30 31 32 33 25 4 7 5 5 5 4 5 5 4 5 5 5 7 5 5 3 0 4 4 4 4 5 6 7 5 8 3 3 6 7 8 8 7 8 10 10 9 10 7 8 8 9 9 12 8 4 7 7 7 8 10 10 12 15 16 17 19 19 18 17 18 18 17 18 17 16 17 15 14 13 11 11 5 6 6
23 24 24 26 26 28 29 30 32 33 34 26 4 9 7 7 7 5 7 7 5 5 5 5 7 2 6 3 3 6 4 6 5 5 8 5 5 7 7 6 7 7 7 6 7 7 7 5 7 6 10 10 10 9 9 10 6 6 4 6 4 6 7 10 12 16 16 16 17 16 18 17 18 19 19 19 19 17 17 18 17 17 16 13 14 10 1
22 23 24 25 26 26 27 29 30 32 34 21 8 11 9 9 8 7 10 10 0 3 4 1 5 3 3 4 6 6 5 7 5 3 5 6 5 6 7 10 9 9 8 6 6 8 7 8 8 9 10 9 7 8 6 8 11 8 5 5 6 5 7 7 10 11 13 15 16 16 17 17 18 18 18 18 18 18 18 17 16 17 17 18 14 9 9
22 23 23 24 25 25 27 28 29 32 30 8 11 9 10 8 7 6 8 9 5 4 3 3 4 2 3 3 7 6 6 6 6 5 3 6 7 7 8 9 10 8 6 6 6 9 7 8 9 11 11 9 9 8 7 10 10 11 10 6 6 5 8 9 10 11 12 12 13 14 14 15 17 17 17 17 16 16 14 13 9 13 15 9 4 5 7
22 22 22 23 24 25 26 26 27 29 27 9 9 11 11 9 9 9 7 6 1 6 4 2 4 5 6 6 5 5 6 5 6 4 7 6 4 7 8 8 8 7 6 9 12 11 10 11 12 11 11 10 11 10 12 11 9 9 9 8 8 6 8 8 8 11 11 13 14 16 16 14 12 12 10 11 10 7 10 11 10 9 13 13 12 9 8
21 21 22 22 23 23 24 25 25 27 18 10 9 10 12 11 10 10 8 8 4 3 5 8 6 4 5 6 5 3 4 5 5 7 4 4 6 7 7 8 6 6 7 10 11 11 13 12 14 12 12 13 14 12 12 14 12 11 9 7 7 8 8 9 7 10 10 13 14 13 11 10 8 8 12 12 11 12 12 12 12 14 13 8 8 7 10
20 20 22 22 22 23 23 24 24 24 20 10 8 7 10 11 8 6 7 8 5 1 3 7 6 6 6 7 3 5 6 6 7 6 8 6 8 7 6 5 7 5 11 10 10 11 13 14 15 15 15 15 14 13 15 15 13 11 9 9 8 9 8 9 7 9 10 9 11 9 10 8 8 14 13 16 14 14 12 11 17 17 11 10 11 13 15
20 20 20 21 21 22 22 23 23 23 22 13 9 8 11 12 7 7 7 6 6 6 5 7 4 6 5 5 6 5 5 4 4 5 4 5 5 7 6 6 6 9 11 11 11 11 11 10 11 11 12 11 13 15 15 14 12 11 8 8 8 7 7 7 7 7 8 9 7 10 7 4 17 13 16 15 14 15 13 6 14 13 13 9 8 12 12
18 19 20 20 21 21 21 21 22 24 25 18 8 8 10 12 9 8 7 6 7 6 8 2 6 8 8 7 7 6 5 2 1 1 1 5 7 5 6 6 8 8 8 9 9 8 8 6 7 6 8 9 7 7 11 10 9 8 9 8 8 9 7 6 9 6 10 8 10 12 10 10 15 14 15 12 12 12 10 8 10 12 14 14 10 10 10
18 17 19 19 19 21 21 21 22 23 24 24 10 7 9 10 8 6 6 6 7 6 8 8 8 9 8 5 6 7 6 0 4 6 2 2 3 6 4 5 7 7 8 7 6 6 6 6 8 6 6 6 4 5 9 1 12 8 3 7 7 4 6 5 8 6 7 9 9 9 9 9 8 10 14 13 16 14 12 8 2 12 12 13 12 11 11
17 17 18 18 19 20 20 20 21 21 22 24 11 8 7 10 8 6 6 6 7 5 7 8 9 8 6 5 5 7 7 6 7 7 3 5 3 2 4 6 7 6 6 6 5 6 6 6 6 7 7 7 4 5 3 7 6 7 4 4 7 7 6 5 6 8 8 9 10 8 10 3 5 10 14 14 13 14 13 8 1 7 11 11 12 11 12
16 17 18 18 18 19 19 20 20 20 19 20 11 9 6 11 9 8 7 5 6 4 6 9 8 7 6 6 3 5 6 6 6 6 5 3 4 3 5 9 6 5 5 7 5 6 6 6 7 9 2 8 6 6 9 7 8 7 8 6 5 5 3 4 6 7 6 7 10 10 4 4 10 13 13 14 15 14 9 8 2 7 8 9 9 10 11
15 16 17 17 17 19 19 19 20 19 20 21 11 7 5 9 10 10 5 5 7 3 7 9 9 6 6 6 6 6 5 6 6 5 6 5 1 4 8 6 8 2 6 6 4 6 5 6 9 8 7 7 4 4 5 7 7 8 7 8 7 6 7 7 10 9 9 9 9 3 1 3 10 13 14 13 14 9 6 6 5 9 9 7 8 8 7
15 15 16 17 17 19 18 18 19 19 19 20 16 7 2 9 9 10 5 5 6 4 7 8 7 7 7 6 5 4 2 4 4 6 6 5 5 9 10 4 5 5 3 7 5 6 5 5 7 7 7 1 5 5 7 7 7 6 7 7 7 7 7 7 8 9 6 5 6 6 5 5 10 10 10 11 9 4 5 4 6 7 9 9 9 9 8
14 14 15 16 17 17 17 18 19 19 19 19 13 6 7 7 7 9 8 6 5 7 5 9 7 9 7 8 6 6 7 3 6 6 6 6 8 9 7 5 4 6 6 5 7 6 6 7 8 7 5 5 4 4 6 5 4 6 4 5 5 6 5 6 7 7 7 5 6 4 3 2 9 11 5 8 5 4 1 4 6 6 5 6 7 6 8
13 14 14 16 16 17 16 17 18 19 19 19 16 7 6 6 9 8 6 4 6 6 3 8 6 5 7 7 7 7 6 7 6 6 6 7 6 6 4 5 6 6 5 6 7 5 4 7 7 5 3 5 5 5 5 7 7 8 5 5 5 7 7 6 4 3 5 7 5 1 3 7 8 8 5 4 2 5 2 4 5 6 5 4 5 5 6
14 13 13 14 15 15 15 16 17 18 19 19 19 8 5 7 8 8 8 4 5 5 7 8 5 4 4 4 6 5 6 5 6 4 6 6 5 5 3 6 5 4 5 5 4 6 2 4 3 4 7 8 4 5 9 7 4 3 4 3 4 3 6 4 6 5 6 6 7 8 3 6 7 6 6 5 7 6 6 7 8 7 3 4 5 7 8
13 13 13 13 14 14 14 16 17 17 18 17 14 6 7 8 9 11 9 6 5 8 8 8 4 2 3 1 2 4 3 4 4 2 3 5 5 4 3 7 6 4 4 4 5 6 7 5 5 6 5 3 5 7 6 5 6 5 6 4 7 3 3 4 3 5 4 8 8 5 5 7 8 8 5 6 8 9 8 7 7 6 7 6 5 6 8
12 12 12 13 13 13 14 15 16 16 18 16 11 7 6 7 9 10 9 6 5 6 6 5 7 2 2 5 4 2 2 3 2 4 3 3 5 6 6 5 6 5 6 6 3 5 6 5 7 5 6 4 5 6 6 5 3 7 6 6 1 6 7 5 6 7 6 3 5 8 10 10 10 9 7 6 6 8 9 9 7 7 8 9 10 6 6
12 11 12 12 12 12 13 14 15 16 17 17 16 11 9 4 7 9 9 8 6 6 5 4 4 6 4 4 2 2 2 4 1 3 4 3 2 5 6 8 6 6 6 5 2 6 3 6 5 4 6 2 3 6 5 6 4 4 7 6 7 2 1 9 6 7 6 6 9 11 12 14 12 7 7 7 8 9 9 8 9 10 10 9 10 9 10
11 11 11 12 11 11 13 14 15 16 17 17 14 8 8 6 5 7 5 6 5 5 5 3 7 1 2 5 3 6 6 4 3 4 4 5 4 6 6 4 3 1 4 4 6 5 2 4 3 5 6 2 0 5 6 7 8 7 8 8 7 9 9 7 12 9 9 5 9 13 14 9 8 12 11 11 11 11 11 11 12 11 12 13 10 6 9
11 10 11 10 10 11 12 13 15 15 17 16 11 8 7 6 4 6 8 8 9 4 5 4 4 5 2 2 4 2 1 2 2 2 4 5 6 5 5 3 3 3 5 7 5 6 4 4 3 6 5 6 7 7 7 7 7 6 5 6 13 9 7 4 7 8 8 7 8 10 10 9 10 12 14 13 13 13 14 14 13 12 12 12 13 13 9
11 10 11 9 9 10 12 13 14 16 15 17 12 8 8 5 2 5 6 7 6 5 7 7 8 8 8 4 3 3 2 1 2 3 3 4 5 6 6 5 4 4 6 4 5 3 4 6 7 3 6 6 6 5 4 9 7 6 4 4 4 4 6 8 6 5 7 9 12 7 3 9 10 12 15 15 15 12 11 12 13 14 12 11 11 13 13
10 10 9 8 8 10 11 13 14 15 15 14 9 9 7 5 1 9 7 7 6 6 7 8 9 10 4 6 2 5 6 1 2 3 3 4 5 5 6 5 5 5 7 5 4 5 4 7 5 6 5 5 5 6 5 6 6 6 4 6 8 6 9 8 8 9 8 7 10 9 8 10 13 15 15 12 11 13 13 12 11 10 11 11 10 9 12
10 10 9 8 9 9 11 12 14 14 14 9 6 6 4 5 7 6 7 7 5 4 5 6 6 4 1 3 2 3 5 6 3 2 3 4 4 3 5 5 5 5 5 6 7 7 5 6 6 6 7 3 4 5 7 6 7 3 3 6 5 6 7 7 6 8 9 10 10 10 10 12 13 14 12 12 10 10 12 14 13 12 13 12 12 10 11
10 10 8 9 9 10 11 12 13 15 14 7 5 6 4 3 5 6 9 6 4 4 5 5 7 6 7 3 2 2 3 1 7 10 8 4 4 3 3 3 5 5 5 5 5 6 4 7 6 6 6 3 2 6 8 8 8 4 5 4 6 6 6 7 7 8 9 9 10 12 12 12 10 11 12 13 13 13 13 13 14 14 14 14 15 14 13
10 10 9 9 10 11 12 13 12 12 8 7 5 5 4 4 5 7 8 7 6 6 6 6 7 6 3 5 2 3 7 2 4 2 3 3 3 1 4 4 5 3 5 6 5 5 6 7 7 7 6 4 3 6 7 7 8 5 7 8 6 6 6 8 8 9 9 9 11 13 13 13 11 12 13 16 17 16 15 14 14 14 15 14 13 14 15
10 10 11 11 11 13 13 14 13 8 7 11 15 14 15 16 14 11 7 6 5 6 5 5 6 7 2 6 5 7 1 2 5 2 4 5 5 1 5 4 6 7 4 5 5 7 5 6 4 7 2 2 4 5 5 7 2 6 10 8 7 7 7 8 8 8 8 9 9 11 13 13 15 17 16 15 15 16 14 14 14 12 13 14 15 15 15
11 11 11 12 12 13 14 14 16 15 13 7 4 4 4 8 8 10 6 4 5 5 4 4 4 6 2 3 4 6 5 4 3 1 4 5 4 4 6 4 4 5 4 7 5 6 5 5 6 5 2 2 1 4 7 2 2 4 4 6 6 7 8 11 8 9 10 10 10 11 12 13 13 13 14 14 14 14 15 13 13 14 14 13 13 13 13
10 11 12 13 13 13 16 15 9 5 4 7 1 5 2 2 6 5 5 4 4 3 5 6 5 5 5 3 2 3 6 4 4 2 5 2 6 5 2 6 2 4 2 4 6 6 7 3 4 6 6 3 3 6 5 4 4 3 5 5 6 7 9 10 10 10 11 11 11 12 14 14 15 15 14 14 14 13 14 14 14 13 13 12 12 13 11
11 12 13 12 13 13 9 8 6 5 3 3 3 3 5 5 8 6 5 5 4 5 4 5 5 7 4 5 2 4 3 6 3 3 5 5 6 2 4 3 7 5 4 5 7 4 6 3 2 6 2 1 4 5 3 1 4 5 5 6 6 7 8 10 12 13 13 13 13 12 14 15 15 15 14 15 15 14 15 15 14 13 13 13 12 11 10
11 12 14 15 9 5 6 5 6 2 3 2 2 5 3 6 5 6 6 5 5 4 5 5 6 5 5 6 3 4 4 5 1 5 3 5 5 3 6 5 8 3 4 6 7 8 3 3 5 8 5 7 3 4 1 1 3 4 4 5 5 6 8 9 12 13 15 15 15 13 14 15 16 13 13 13 13 14 14 14 14 14 14 13 12 11 11
10 11 7 6 5 7 3 2 2 1 5 5 1 4 3 3 4 4 4 5 5 5 5 5 5 8 4 3 4 5 4 6 4 4 5 3 5 5 1 4 3 2 6 5 3 3 4 4 4 6 5 2 3 2 1 2 1 2 3 4 5 7 8 10 11 12 13 14 13 13 14 14 13 11 12 16 15 14 12 10 11 13 11 10 10 10 11
7 6 6 5 5 3 4 3 2 2 5 5 3 3 4 4 4 4 4 4 3 4 4 5 6 4 5 5 5 2 5 6 6 4 6 4 3 4 1 5 1 3 4 7 2 2 6 4 4 5 7 5 3 1 2 2 3 2 3 4 5 7 8 9 10 11 11 11 11 10 10 11 11 12 10 13 13 13 13 12 9 10 9 5 8 10 10
5 5 3 4 2 4 4 2 6 5 3 4 5 3 4 5 3 1 3 3 3 3 1 5 2 5 3 6 6 4 4 4 7 8 7 7 1 5 4 5 3 4 7 7 1 5 5 6 1 2 5 4 3 1 2 3 4 2 3 5 6 7 9 10 10 9 11 10 8 10 10 11 11 9 10 13 13 13 13 12 11 10 10 9 10 11 10
4 4 3 3 5 5 1 1 4 5 4 4 2 3 3 3 6 1 1 4 4 3 3 5 2 5 3 3 3 6 4 4 3 4 4 7 1 3 5 6 3 6 6 6 2 2 4 6 3 5 3 2 1 2 4 4 3 3 3 4 7 7 9 10 10 11 11 11 10 9 8 10 12 12 11 12 12 12 12 13 13 12 12 12 12 11 10
4 3 5 6 8 7 6 4 4 4 4 2 3 4 2 3 3 0 1 3 0 1 3 1 3 2 1 3 5 5 1 5 3 4 3 6 2 2 5 5 3 5 6 2 2 4 5 7 6 2 2 3 3 4 6 3 2 5 5 6 7 8 9 10 11 11 11 11 11 9 8 11 12 12 11 9 9 11 12 10 11 13 13 12 11 10 10
8 7 6 5 5 6 4 4 4 2 1 0 1 2 3 4 4 5 5 5 1 2 4 3 1 2 5 1 5 0 5 3 4 2 4 6 2 3 5 5 4 6 5 4 5 5 7 7 6 2 6 6 7 7 4 2 4 4 6 6 7 7 9 11 11 12 12 11 12 10 8 9 9 10 11 13 11 12 10 8 9 10 10 11 11 10 9
4 5 5 4 4 3 3 2 2 2 0 2 2 2 5 6 4 4 4 3 2 0 4 4 5 6 3 6 3 5 4 3 1 2 5 5 4 5 3 5 6 4 4 6 6 7 7 4 6 2 6 5 5 2 2 1 4 5 7 7 8 8 10 11 11 12 13 11 11 12 11 11 10 9 9 10 12 14 12 10 10 11 12 12 11 9 8
3 3 3 1 1 2 1 1 4 2 3 4 5 6 4 3 5 4 4 3 6 1 7 3 3 3 7 3 5 1 2 5 3 3 4 3 6 5 6 7 5 5 6 8 6 6 5 2 3 3 2 3 1 1 1 3 4 6 7 8 8 10 10 11 12 12 11 12 13 14 13 13 12 10 9 9 9 11 12 13 12 11 10 10 10 10 8
4 3 1 1 2 2 1 1 1 2 5 4 5 4 4 5 4 3 4 5 6 5 6 5 2 1 6 3 5 2 3 3 5 5 4 4 6 7 5 6 5 7 6 6 7 6 6 4 2 3 3 3 2 2 3 4 5 6 6 7 9 10 10 11 12 12 12 13 13 13 13 13 13 11 9 10 8 9 8 11 12 12 11 10 10 9 9
4 3 3 1 2 2 4 3 6 6 4 2 3 4 4 4 4 6 2 3 4 4 8 4 3 3 5 5 5 5 4 2 5 4 3 6 6 5 4 6 7 6 7 8 7 3 1 4 3 2 1 2 3 4 4 4 6 7 8 8 9 10 12 12 13 13 13 13 14 14 13 14 13 12 11 11 12 8 8 11 12 11 10 10 9 8 8
3 3 4 3 3 3 6 8 7 8 8 4 4 4 3 2 2 3 2 1 4 6 6 5 5 1 5 3 3 6 7 4 6 6 5 7 4 5 5 5 6 5 6 6 6 6 4 4 4 3 2 3 5 5 5 6 8 9 10 10 11 12 12 13 13 13 13 13 13 12 13 14 14 11 8 8 11 9 8 9 10 9 10 9 7 7 7
4 3 2 3 4 4 6 6 6 7 4 1 2 2 5 5 5 1 4 4 5 4 6 3 4 4 6 3 5 5 7 3 3 3 3 4 4 5 4 6 7 7 3 3 5 6 6 5 2 2 4 5 4 5 8 9 8 9 10 11 11 12 12 12 13 13 13 12 11 11 12 12 12 9 8 9 11 11 10 10 8 8 10 9 8 8 7
2 2 3 6 6 8 8 3 3 6 5 3 4 4 1 3 5 2 4 3 0 1 1 4 3 5 6 5 4 5 6 4 5 3 6 7 7 6 7 10 7 6 6 5 5 5 6 6 6 6 6 6 6 6 7 9 9 9 9 10 11 11 11 12 13 13 12 11 12 12 11 7 6 8 8 7 8 7 10 8 4 6 9 9 8 8 8
2 3 4 6 9 6 3 5 4 4 6 5 4 3 1 4 3 4 2 3 2 3 3 5 4 5 3 2 3 2 3 2 5 7 7 8 5 6 8 9 8 7 7 7 6 5 6 5 6 6 6 7 8 8 7 8 9 9 10 11 11 11 11 11 12 11 12 12 12 10 10 3 3 5 6 6 8 7 7 6 6 6 5 6 7 7 7
1 2 5 6 9 10 9 8 6 7 5 3 5 4 1 6 1 6 2 2 4 6 6 3 5 4 2 3 6 6 6 5 7 6 8 6 5 7 7 7 8 8 8 8 7 6 6 6 5 6 6 6 7 8 8 7 9 10 10 11 11 11 11 11 11 11 12 11 11 10 8 4 4 6 6 7 8 9 9 8 8 9 8 6 7 8 7
Wind_Direction
347 346 346 346 346 345 344 347 351 355 349 1 348 320 294 261 287 95 255 121 220 255 267 263 255 250 49 257 112 12 208 329 48 315 34 322 40 285 272 26 304 44 336 347 300 16 314 317 302 329 334 13 78 70 354 26 304 301 322 307 44 320 283 288 272 277 280 282 285 291 289 296 276 260 267 269 254 246 274 304 323 321 306 277 280 261 89
347 347 347 347 346 345 343 343 349 360 11 337 306 304 301 322 331 137 119 191 229 258 275 287 220 83 60 307 30 67 7 327 8 353 15 344 340 342 338 251 46 318 346 339 298 13 305 218 326 303 295 58 76 90 350 32 302 320 34 320 20 307 313 321 313 303 285 275 255 264 336 356 344 315 286 279 286 299 312 308 302 296 303 308 318 295 89
349 348 348 348 347 346 344 343 341 353 1 338 303 317 316 302 295 296 108 181 226 267 328 328 353 82 309 187 214 200 168 49 310 315 333 349 348 318 8 352 340 295 319 302 302 302 279 313 297 299 333 280 133 115 329 49 287 66 52 5 333 298 302 301 293 296 295 296 289 346 342 330 331 300 297 319 323 309 294 269 281 287 305 279 278 300 70
350 350 350 349 348 346 345 343 342 339 358 337 282 287 295 287 290 156 164 204 214 226 237 283 337 29 160 247 60 323 322 123 105 322 305 37 316 301 341 300 354 297 334 318 295 289 207 242 309 310 314 316 111 67 322 346 299 76 46 344 308 291 292 280 275 277 282 290 305 304 298 284 270 273 287 298 295 287 286 280 265 280 291 275 277 287 229
352 353 352 351 349 348 346 346 342 341 338 2 291 279 241 283 321 358 5 296 189 359 5 354 313 3 355 345 28 296 319 351 99 27 299 49 1 307 292 335 305 341 354 333 332 317 306 308 305 310 294 276 301 297 18 280 115 94 313 269 270 264 270 264 261 259 262 268 267 269 270 270 270 273 269 260 255 252 257 267 262 202 261 270 267 341 309
354 354 354 353 351 350 349 347 346 342 333 340 267 299 345 328 53 339 37 315 350 341 70 339 353 37 285 24 157 292 311 23 331 85 54 318 44 326 152 150 31 343 5 342 298 316 307 327 296 307 309 346 329 323 325 321 121 220 257 270 256 262 267 277 284 285 289 290 293 298 297 294 295 292 290 283 282 285 284 281 287 286 270 278 298 95 328
355 355 355 354 352 352 351 350 348 344 335 332 323 7 22 357 348 20 3 311 22 352 2 322 317 40 5 18 291 25 312 37 26 343 337 307 34 4 313 9 25 348 355 342 312 314 309 284 10 6 341 335 333 299 305 287 219 152 324 313 354 329 279 290 291 290 286 282 281 278 274 275 273 269 268 271 273 271 269 270 275 275 274 268 272 257 91
357 357 356 355 354 353 354 352 352 345 340 326 41 36 3 15 353 345 342 313 311 324 273 332 272 86 84 264 73 326 351 3 354 21 10 333 33 14 315 4 353 334 321 320 313 351 360 349 314 348 339 321 300 322 313 303 314 341 330 350 327 303 293 313 299 295 290 292 290 285 279 276 276 275 273 271 274 275 269 273 272 270 266 271 282 310 62
359 359 358 357 356 356 355 356 356 349 343 13 11 42 10 339 346 352 317 317 39 293 307 273 288 151 109 18 49 317 52 354 4 308 65 358 339 12 348 345 339 312 307 289 292 27 1 336 320 318 322 301 322 322 301 334 318 317 314 295 307 289 293 305 297 287 281 282 280 280 281 279 278 277 271 265 263 262 260 267 332 354 326 281 355 275 49
1 0 359 357 358 357 357 359 357 357 338 11 356 23 0 347 351 336 331 307 177 266 159 194 274 54 43 5 21 345 33 354 347 305 78 332 25 7 345 338 322 300 305 11 4 340 326 313 310 304 291 283 278 276 281 285 295 305 297 307 282 293 299 290 291 288 289 296 300 303 308 309 294 283 312 317 287 306 323 7 22 26 29 40 38 35 345
1 0 360 359 358 358 358 358 359 1 359 17 351 5 9 1 337 331 326 315 260 359 325 56 18 25 337 57 342 77 342 354 32 327 46 354 50 20 341 337 339 305 23 353 336 320 309 302 293 284 274 268 266 267 269 269 264 265 273 281 280 283 274 278 281 277 292 298 298 301 295 274 277 34 10 358 346 352 335 52 31 37 33 38 29 20 15
2 1 2 0 360 359 358 357 358 1 5 340 310 348 14 344 322 317 321 324 337 179 18 51 21 16 13 25 330 349 343 9 356 12 322 346 342 342 352 355 355 296 14 332 325 317 302 284 265 253 250 255 261 263 261 262 262 253 246 252 279 278 283 278 284 280 283 296 298 285 261 267 354 28 32 16 3 11 16 37 37 38 41 25 12 14 11
2 360 0 1 1 360 358 357 357 357 2 349 330 5 9 355 334 343 330 312 317 28 36 65 56 51 10 353 357 346 7 1 342 0 295 340 348 326 41 356 322 344 337 327 323 310 304 304 295 275 273 264 244 243 248 253 254 248 251 275 275 281 269 280 278 276 273 265 252 263 262 302 53 39 24 18 9 8 341 43 57 38 23 24 8 15 9
359 359 359 0 360 359 358 357 356 356 356 355 332 352 17 5 1 354 3 342 344 26 352 112 58 25 4 5 348 325 293 210 200 331 356 65 321 336 357 355 354 321 318 331 309 305 296 289 307 297 254 209 233 251 239 225 243 243 266 232 224 245 274 278 283 286 280 292 283 276 323 285 43 27 11 9 4 359 2 338 50 36 29 9 8 8 4
356 356 358 357 358 356 358 357 357 356 355 350 322 348 24 10 360 345 319 305 324 330 41 15 1 352 340 353 6 327 316 263 282 160 166 338 293 18 342 349 335 332 330 310 314 311 300 297 285 295 302 246 283 346 1 8 325 340 47 326 301 317 291 341 318 296 305 294 287 285 277 275 32 357 0 4 355 348 332 329 72 20 33 13 14 6 7
354 355 355 356 355 355 355 356 356 356 358 351 340 344 29 14 351 337 330 308 320 331 38 10 351 346 339 339 4 348 357 352 359 324 247 127 32 2 26 2 329 340 302 303 298 299 302 313 300 294 307 340 25 284 300 349 292 283 232 249 291 288 273 270 263 281 284 274 274 271 275 49 334 3 355 1 338 351 329 313 213 7 8 358 10 5 9
352 354 354 354 354 354 354 354 354 355 355 0 340 324 12 21 5 346 332 319 299 7 34 11 342 317 298 339 13 35 1 343 335 328 326 88 16 40 3 356 304 230 323 302 299 292 286 271 277 260 257 62 356 10 312 297 319 314 328 288 289 302 316 304 272 272 261 283 280 280 343 67 5 352 355 347 344 331 339 290 312 333 360 334 356 1 358
350 351 352 353 352 354 353 352 353 352 352 351 343 313 329 21 4 342 317 309 321 355 41 19 357 1 9 352 330 350 333 333 317 314 286 306 323 21 351 359 340 327 273 292 334 286 297 291 291 343 330 68 359 297 319 357 308 313 324 337 303 289 280 274 287 296 285 262 269 265 316 312 356 348 349 358 325 302 283 294 9 316 336 340 354 353 351
348 349 351 352 352 352 352 352 352 351 352 354 341 300 52 11 8 0 332 309 319 353 61 37 350 13 5 312 311 334 335 332 319 301 325 310 49 328 298 360 332 334 351 310 320 292 310 317 333 19 326 299 66 25 354 300 320 358 326 305 322 312 336 311 300 281 297 351 330 331 351 320 298 338 9 352 312 305 313 332 278 291 310 344 347 342 341
346 348 350 351 351 351 350 350 351 349 350 352 351 316 305 20 26 25 1 344 331 312 20 25 6 9 16 0 5 359 341 328 7 326 350 337 16 336 298 217 137 328 319 358 318 23 354 334 348 341 303 359 77 357 286 287 7 302 311 349 304 340 311 304 304 323 304 283 304 294 291 34 324 339 334 34 9 8 221 268 300 310 341 332 330 327 316
344 346 348 350 349 350 350 348 349 347 348 348 347 327 323 48 6 20 4 341 312 308 88 30 349 5 13 8 8 347 332 345 356 334 359 332 5 305 345 10 353 340 358 342 324 346 21 322 351 334 313 283 5 296 343 341 303 40 352 340 304 8 291 310 333 42 313 303 310 347 236 285 323 350 340 350 231 272 285 291 291 296 342 331 326 307 304
343 344 346 348 349 348 348 348 347 345 346 347 340 311 306 9 352 5 329 297 282 281 322 334 328 305 2 28 2 350 326 318 355 350 324 322 336 326 348 310 24 3 22 331 319 316 15 22 291 285 323 335 352 292 357 318 307 145 192 243 276 123 291 341 299 343 301 318 309 312 321 320 343 335 323 322 311 319 329 300 313 314 319 297 301 306 307
341 342 344 346 347 346 347 346 345 343 341 346 348 338 334 336 350 344 323 296 257 254 264 257 235 285 215 179 94 4 334 339 323 279 329 317 303 275 358 329 59 351 31 358 336 323 348 341 307 21 314 282 347 320 288 274 298 332 322 30 331 355 356 333 277 293 336 283 300 343 330 340 336 329 353 341 327 314 306 308 305 311 327 315 293 295 309
339 341 343 345 343 344 344 345 344 341 337 336 340 316 324 322 351 343 333 301 283 311 249 217 260 180 9 24 5 76 238 179 249 342 21 327 317 325 99 38 350 286 64 15 40 322 1 320 315 2 318 347 323 275 298 287 339 0 318 300 249 1 359 328 303 301 308 312 60 334 341 338 333 325 332 325 310 313 314 305 299 299 305 312 311 321 305
336 339 341 341 339 341 342 343 342 339 334 332 336 309 273 285 5 343 345 344 344 328 311 181 151 49 26 45 263 213 23 25 34 253 246 208 287 325 359 357 3 8 18 354 310 297 304 292 307 302 294 28 314 300 341 309 301 2 313 312 314 100 337 292 315 324 311 326 345 359 344 326 324 339 334 339 335 326 322 311 296 290 288 291 293 301 293
333 336 336 334 337 337 339 341 340 337 329 328 326 316 328 347 357 344 339 340 294 282 288 327 98 208 57 226 122 15 357 303 266 204 238 289 320 341 352 337 331 65 305 316 311 297 326 295 295 290 297 341 62 302 307 342 307 301 316 308 311 327 324 349 328 307 314 331 5 349 332 343 5 320 323 329 323 320 309 308 307 304 295 289 283 279 286
330 332 330 331 332 334 334 337 337 334 324 326 328 309 309 320 350 2 12 351 329 234 222 306 29 108 8 30 57 283 189 320 228 239 263 244 261 242 227 268 310 300 279 264 234 251 249 284 308 295 304 298 322 300 315 303 304 323 284 344 4 350 359 310 317 347 321 341 330 348 342 327 322 320 323 321 319 316 315 311 302 298 301 302 298 293 282
327 328 326 326 326 328 331 331 333 327 323 324 312 290 269 291 334 42 25 13 354 331 322 309 294 337 321 241 102 272 145 214 277 282 248 256 237 244 271 279 288 293 271 271 276 295 305 286 274 296 290 300 296 301 309 274 274 281 306 353 4 39 295 322 325 306 306 323 327 334 313 291 295 311 318 321 318 309 305 307 310 312 304 298 295 292 283
323 321 318 317 319 323 326 325 327 322 324 324 300 295 251 218 266 51 20 4 320 307 288 279 273 269 308 73 261 219 158 321 299 279 283 252 233 244 243 258 268 272 281 291 283 287 272 277 307 295 298 330 296 298 301 295 294 308 31 5 342 328 322 331 337 312 287 308 317 330 319 309 306 304 305 309 309 309 305 302 301 305 313 313 307 304 295
317 315 308 308 313 318 320 321 322 319 327 313 295 281 259 143 57 40 21 330 336 305 295 315 309 61 66 207 147 352 216 179 215 240 239 257 248 236 244 237 238 245 276 296 326 310 314 314 307 296 290 355 309 306 280 297 298 67 336 358 323 345 344 343 341 328 314 320 317 320 311 302 303 305 309 306 303 306 305 307 305 296 290 287 283 273 272
312 307 301 299 307 311 313 315 317 321 315 301 285 256 273 193 80 8 5 330 340 304 299 281 281 312 265 151 240 251 4 173 239 222 193 179 203 235 236 236 262 266 278 272 264 266 301 277 283 288 296 303 198 270 290 297 296 328 359 320 309 320 337 326 318 307 314 320 321 314 305 302 306 313 305 304 310 304 297 295 296 291 287 286 285 280 270
307 304 296 296 300 304 306 307 313 317 302 292 325 355 23 350 343 327 314 299 303 269 264 300 289 253 198 142 187 91 266 276 357 316 276 285 302 129 247 227 264 237 252 268 273 288 264 271 271 289 285 43 325 281 292 288 300 359 290 303 328 347 343 326 323 318 324 333 329 323 316 315 320 316 309 311 307 304 299 295 292 293 292 286 284 280 277
301 298 290 291 294 298 301 302 305 305 292 298 297 272 268 275 279 279 285 296 266 262 280 282 271 302 292 107 187 156 336 231 227 308 284 146 254 129 272 274 262 255 211 249 243 255 269 270 273 274 42 14 281 288 274 286 73 274 305 335 346 344 325 311 315 327 329 329 332 321 315 310 309 309 308 303 300 300 299 296 297 294 290 289 287 285 280
298 293 292 290 292 296 298 300 295 286 271 262 273 166 156 203 240 238 282 299 275 283 278 255 280 279 297 126 260 96 290 321 327 59 309 130 301 287 268 269 269 287 254 261 275 263 252 270 269 293 189 209 259 285 268 260 114 278 309 322 331 331 330 319 328 333 329 323 327 312 305 304 300 303 305 306 307 303 305 302 298 296 297 294 292 294 297
293 292 289 290 290 294 293 288 296 259 280 267 48 72 72 174 300 295 252 302 303 230 223 236 244 277 290 252 248 81 353 287 287 79 290 160 156 262 278 264 223 249 253 213 257 260 273 279 356 288 281 21 302 265 276 298 309 326 319 316 332 340 332 329 331 332 321 324 318 320 317 314 319 319 320 318 309 305 303 306 307 302 296 293 297 299 301
292 293 289 288 290 288 285 243 225 264 245 326 23 136 138 245 235 246 247 274 284 309 308 305 288 273 306 288 24 89 321 286 35 319 264 290 274 254 286 300 287 268 289 255 272 269 259 125 213 260 88 71 264 299 346 299 303 313 317 318 340 335 321 309 317 320 322 318 317 315 318 322 322 322 322 320 321 320 316 308 302 297 293 292 291 290 289
295 292 292 286 274 232 240 252 221 246 18 30 25 105 182 271 241 250 229 222 210 225 289 309 299 314 356 340 345 55 338 293 192 250 215 250 288 328 293 288 271 333 281 264 258 258 331 65 256 271 244 250 213 198 225 9 299 300 315 322 324 319 304 313 321 325 321 325 328 327 329 328 325 325 316 314 319 324 320 314 310 308 301 299 302 300 297
300 293 289 272 242 261 245 113 38 17 272 278 222 244 169 178 237 200 195 231 172 189 227 237 261 290 326 278 280 75 278 271 280 320 317 27 299 266 288 268 291 302 271 291 309 34 161 207 238 257 268 82 62 115 151 236 282 283 290 304 318 308 316 324 326 327 329 327 328 331 330 325 324 320 320 316 318 317 310 305 308 306 309 311 301 297 298
275 277 248 242 262 316 16 35 89 55 287 262 232 271 221 189 234 210 183 174 151 234 224 248 274 285 303 282 314 349 350 347 317 288 289 91 324 309 185 282 113 234 274 269 196 121 271 244 275 290 273 111 74 278 224 239 257 315 324 322 304 310 324 322 326 333 331 334 333 320 308 314 319 317 314 313 314 311 309 309 304 304 306 285 280 288 292
252 264 272 263 295 38 105 138 166 222 253 264 199 231 276 178 252 175 115 236 221 227 181 241 259 307 340 315 328 299 91 306 318 326 330 316 86 288 348 302 318 280 283 289 327 150 277 282 173 230 252 134 161 159 335 285 308 316 314 285 297 322 326 327 333 331 332 335 311 293 294 305 309 298 301 314 317 314 315 311 308 303 302 300 297 293 294
236 263 252 310 359 313 303 230 228 241 250 249 241 204 265 261 230 192 232 256 263 168 193 293 202 230 184 265 274 286 114 261 319 309 320 291 358 273 271 278 8 285 281 280 66 240 281 281 221 239 309 88 194 194 243 251 247 273 298 330 339 332 329 331 330 334 334 329 327 323 300 297 299 298 297 297 308 312 310 316 316 311 306 301 300 301 298
5 322 319 295 285 287 289 264 253 238 208 270 293 261 250 251 275 138 233 280 185 171 142 262 288 341 337 246 254 305 340 73 310 278 297 290 70 298 296 290 259 272 284 354 341 281 287 283 290 272 325 262 232 249 252 255 299 306 331 351 334 332 333 331 333 333 334 332 332 322 311 306 306 305 299 292 295 309 314 311 310 313 313 310 300 294 297
285 244 264 282 254 231 236 259 186 240 288 287 263 336 271 255 234 249 188 205 34 284 103 235 105 225 266 284 295 150 296 39 302 290 264 283 314 244 292 285 276 264 292 315 285 287 278 284 294 109 189 197 209 230 239 280 304 316 320 322 332 333 333 330 335 332 335 332 329 324 303 296 306 308 315 312 304 304 303 292 297 302 310 310 303 295 291
247 256 241 223 241 219 209 259 162 85 351 213 196 219 206 225 222 230 284 121 174 309 67 304 310 302 301 129 280 316 264 153 149 264 245 243 251 268 266 276 269 308 318 276 277 274 287 328 345 73 157 194 217 187 270 289 315 305 314 331 326 328 328 329 333 332 332 327 324 327 326 326 327 308 307 320 328 320 316 315 318 320 317 315 305 298 298
259 229 244 240 288 314 70 331 280 203 224 213 220 266 289 343 19 38 47 44 299 305 174 161 29 344 298 337 297 254 4 308 147 238 286 309 287 277 275 281 314 315 288 289 288 283 283 304 68 70 134 290 306 326 336 319 306 311 329 318 324 326 327 328 329 327 324 323 325 329 328 327 329 328 336 328 342 331 324 323 323 319 317 318 313 305 308
212 227 184 102 333 292 231 247 193 236 241 243 239 247 310 14 359 41 47 358 352 342 308 358 29 268 274 290 277 283 189 263 300 278 303 303 298 283 282 288 282 286 285 276 279 304 21 340 164 226 234 263 313 321 323 310 307 318 316 322 325 320 321 324 323 322 322 323 326 324 324 325 335 335 331 339 343 318 320 317 323 326 323 316 322 322 322
258 247 257 253 268 223 216 237 225 233 254 212 304 335 76 41 357 325 357 35 278 344 340 350 319 323 298 289 277 258 259 237 268 283 303 267 256 278 293 291 283 278 285 292 297 358 340 317 10 46 32 332 309 316 307 309 316 320 319 322 314 316 317 320 320 319 320 323 322 324 324 328 333 344 349 350 327 311 320 327 325 328 324 311 318 328 330
229 244 237 221 227 214 215 227 249 250 252 266 242 252 314 7 329 303 11 222 9 24 344 351 304 291 253 184 211 272 296 274 270 262 256 277 299 281 293 272 261 256 267 300 334 350 324 346 344 7 315 324 314 307 313 329 322 322 321 319 316 315 315 316 315 314 319 322 324 322 322 324 336 360 358 320 308 319 323 321 321 320 312 317 327 333 335
302 298 238 219 236 246 235 223 241 262 266 267 16 310 282 279 288 349 81 349 330 345 32 352 328 328 275 262 259 265 259 218 249 271 261 247 257 265 254 267 286 289 287 291 321 352 343 324 358 13 335 334 340 332 318 315 323 319 316 311 312 312 311 309 311 311 314 319 322 319 319 337 358 348 339 337 332 329 326 310 310 326 312 320 341 344 350
258 263 273 253 246 253 263 243 239 248 252 212 178 232 317 300 288 127 132 265 159 226 178 226 233 272 298 321 301 302 289 275 267 284 265 262 261 265 264 267 268 286 314 356 345 336 329 325 328 312 305 302 306 317 319 320 314 304 304 308 309 306 305 308 309 311 316 321 317 319 323 16 354 319 324 319 311 329 314 306 317 309 324 334 342 355 351
257 252 265 254 256 261 327 289 267 305 315 327 337 328 352 305 344 97 56 337 52 289 265 268 258 230 253 249 266 280 247 267 253 246 256 267 272 276 271 278 287 302 321 341 332 321 309 304 294 294 305 317 323 328 317 304 300 307 310 308 303 305 306 308 309 315 317 317 315 315 324 345 271 290 288 291 290 280 278 326 334 334 333 338 342 352 350
249 235 242 243 243 258 267 267 268 260 266 240 231 255 236 260 276 113 144 282 271 265 273 241 245 248 219 234 243 264 297 296 267 271 260 251 247 260 266 276 290 296 309 313 319 325 310 305 333 343 334 329 311 287 289 307 311 306 303 303 306 308 310 313 315 314 313 313 315 314 316 311 282 294 283 281 297 335 345 344 340 343 348 358 358 358 0